{"data":{"norad_id":52852,"intl_designator":"2022-062Y","name":"STARLINK-4184","alt_names":[],"object_type":"PAYLOAD","status":"ACTIVE","operator":null,"country":"US","launch_date":"2022-06-17","launch_site_code":"AFETR","launch_vehicle":null,"mission":null,"orbit_class":"UNKNOWN","rcs_meters":null,"size_class":null,"mass_kg":null,"dimensions":null,"purposes":["comms"],"wikipedia_slug":null,"has_3d_model":false,"image_url":null,"decayed_at":null,"tle_current":{"epoch":"2026-05-25T02:02:54.068064Z","epoch_age_seconds":63569,"freshness":"FRESH","line1":"1 52852U 22062Y   26145.08534801 -.00001365  00000+0 -67674-4 0  9991","line2":"2 52852  53.2132  41.1668 0001600  92.5249 267.5926 15.08844781217456","mean_motion":15.08844781,"eccentricity":0.00016,"inclination_deg":53.2132,"raan_deg":41.1668,"arg_perigee_deg":92.5249,"mean_anomaly_deg":267.5926,"bstar":-6.7674e-5,"rev_number":21745,"period_min":95.437252269622,"perigee_km":538.6219168743,"apogee_km":540.83563392242,"semimajor_km":6917.8657753984,"source":"CELESTRAK","updated_at":"2026-05-25T13:38:17.245245Z"}}}